Willmar, MN

9:41 PM CDT on March 24, 2017 (GMT -0500)
Willmar

Weather History for KBDH - June, 2014

Change the Weather History Date:

Thursday, June 5, 2014

  Actual Average (KBBB) Record (KBBB)
Temperature  
Mean Temperature 64 °F -  
Max Temperature 69 °F 78 °F 92 °F (1968)
Min Temperature 60 °F 54 °F 35 °F (2002)
Growing Degree Days 14 (Base 50)    
Moisture  
Dew Point 59 °F    
Average Humidity 79    
Maximum Humidity 94    
Minimum Humidity 64    
Precipitation  
Precipitation 0.00 in - - ()
Sea Level Pressure  
Sea Level Pressure 29.88 in    
Wind  
Wind Speed 5 mph (South)    
Max Wind Speed 12 mph    
Max Gust Speed 16 mph    
Visibility 9 miles    
Events Rain    
Averages and records for this station are not official NWS values.
T = Trace of Precipitation, MM = Missing Value Source: NWS Daily Summary

Daily Weather History Graph

Daily Weather History Graph

Search for Another Location

Airport or City:

Trip Planner

Search our weather history database for the weather conditions in past years. The results will help you decide how hot, cold, wet, or windy it might be!

Date:

Astronomy

Jun. 05, 2014 Rise Set
Actual Time 5:34 AM CDT 9:03 PM CDT
Civil Twilight 4:57 AM CDT 9:40 PM CDT
Nautical Twilight 4:09 AM CDT 10:29 PM CDT
Astronomical Twilight 3:06 AM CDT 11:32 PM CDT
Moon 1:07 PM CDT (6/5) 1:18 AM CDT (6/5)
Length of Visible Light 16h 42m
Length of Day
15h 29m
Waxing Crescent, 49% of the Moon is Illuminated
Jun 5
Waxing Crescent
Jun 5
First Quarter
Jun 12
Full
Jun 19
Last Quarter
Jun 27
New

Hourly Weather History & Observations

Time (CDT) Temp. Dew Point Humidity Pressure Visibility Wind Dir Wind Speed Gust Speed Precip Events Conditions
12:15 AM 64.4 °F 53.6 °F 68% 29.91 in 10.0 mi ESE 4.6 mph - N/A   Clear
12:35 AM 62.6 °F 53.6 °F 72% 29.90 in 10.0 mi ESE 4.6 mph - N/A   Clear
12:55 AM 62.6 °F 53.6 °F 72% 29.90 in 10.0 mi ESE 4.6 mph - N/A   Clear
1:15 AM 62.6 °F 53.6 °F 72% 29.89 in 10.0 mi ESE 5.8 mph - N/A   Clear
1:35 AM 64.4 °F 53.6 °F 68% 29.90 in 10.0 mi SE 5.8 mph - N/A   Clear
1:55 AM 64.4 °F 53.6 °F 68% 29.90 in 10.0 mi SSE 4.6 mph - N/A   Scattered Clouds
2:15 AM 64.4 °F 53.6 °F 68% 29.92 in 10.0 mi SSE 3.5 mph - N/A   Scattered Clouds
2:35 AM 64.4 °F 53.6 °F 68% 29.92 in 10.0 mi Calm Calm - N/A   Scattered Clouds
2:55 AM 66.2 °F 53.6 °F 64% 29.92 in 10.0 mi South 3.5 mph - N/A   Scattered Clouds
3:15 AM 66.2 °F 55.4 °F 68% 29.91 in 10.0 mi South 3.5 mph - N/A   Scattered Clouds
3:35 AM 66.2 °F 57.2 °F 73% 29.91 in 10.0 mi South 3.5 mph - N/A   Scattered Clouds
3:55 AM 66.2 °F 57.2 °F 73% 29.89 in 10.0 mi South 3.5 mph - N/A   Scattered Clouds
4:15 AM 66.2 °F 57.2 °F 73% 29.89 in 10.0 mi Calm Calm - N/A   Scattered Clouds
4:35 AM 64.4 °F 57.2 °F 77% 29.89 in 10.0 mi Calm Calm - N/A   Scattered Clouds
4:55 AM 64.4 °F 57.2 °F 77% 29.88 in 10.0 mi SSE 3.5 mph - N/A   Scattered Clouds
5:15 AM 62.6 °F 57.2 °F 82% 29.88 in 10.0 mi SSE 5.8 mph - N/A   Clear
5:35 AM 62.6 °F 57.2 °F 82% 29.88 in 10.0 mi SSE 5.8 mph - N/A   Clear
5:55 AM 62.6 °F 57.2 °F 82% 29.87 in 10.0 mi SE 8.1 mph - N/A   Clear
6:14 AM 62.6 °F 57.2 °F 82% 29.86 in 10.0 mi SE 4.6 mph - N/A   Clear
6:35 AM 62.6 °F 57.2 °F 82% 29.84 in 10.0 mi SE 6.9 mph - N/A   Clear
6:55 AM 64.4 °F 57.2 °F 77% 29.86 in 10.0 mi SE 6.9 mph - N/A   Clear
7:15 AM 66.2 °F 57.2 °F 73% 29.87 in 10.0 mi SE 11.5 mph - N/A   Clear
7:35 AM 66.2 °F 57.2 °F 73% 29.87 in 10.0 mi SSE 6.9 mph - N/A   Clear
7:55 AM 66.2 °F 57.2 °F 73% 29.88 in 10.0 mi SSE 5.8 mph - N/A   Clear
8:15 AM 68.0 °F 57.2 °F 68% 29.88 in 10.0 mi South 5.8 mph 16.1 mph N/A   Clear
8:35 AM 68.0 °F 57.2 °F 68% 29.87 in 10.0 mi South 6.9 mph - N/A   Clear
8:55 AM 68.0 °F 57.2 °F 68% 29.86 in 10.0 mi South 4.6 mph - N/A   Clear
9:15 AM 68.0 °F 57.2 °F 68% 29.85 in 10.0 mi South 5.8 mph - N/A   Clear
9:35 AM 68.0 °F 57.2 °F 68% 29.86 in 10.0 mi South 6.9 mph - N/A   Scattered Clouds
9:55 AM 66.2 °F 59.0 °F 78% 29.88 in 7.0 mi SSW 8.1 mph - N/A Rain Rain
10:14 AM 66.2 °F 60.8 °F 83% 29.88 in 7.0 mi SSW 8.1 mph - N/A Rain Rain
10:35 AM 66.2 °F 60.8 °F 83% 29.88 in 5.0 mi South 8.1 mph - N/A Rain Heavy Rain
10:55 AM 64.4 °F 60.8 °F 88% 29.88 in 7.0 mi SSW 9.2 mph - N/A Rain Rain
11:15 AM 64.4 °F 60.8 °F 88% 29.88 in 4.0 mi SSW 4.6 mph - N/A Rain Rain
11:35 AM 62.6 °F 59.0 °F 88% 29.88 in 3.0 mi SSW 9.2 mph 16.1 mph N/A Rain Heavy Rain
11:55 AM 62.6 °F 59.0 °F 88% 29.89 in 3.0 mi SSW 5.8 mph - N/A Rain Heavy Rain
12:15 PM 62.6 °F 59.0 °F 88% 29.88 in 3.0 mi SSE 4.6 mph - N/A Rain Heavy Rain
12:35 PM 62.6 °F 60.8 °F 94% 29.90 in 3.0 mi South 4.6 mph - N/A Rain Heavy Rain
12:55 PM 62.6 °F 60.8 °F 94% 29.88 in 5.0 mi SW 3.5 mph - N/A Rain Heavy Rain
1:15 PM 62.6 °F 60.8 °F 94% 29.86 in 5.0 mi SSW 10.4 mph 16.1 mph N/A Rain Light Rain
1:35 PM 62.6 °F 59.0 °F 88% 29.87 in 10.0 mi SSW 6.9 mph - N/A   Scattered Clouds
1:55 PM 62.6 °F 60.8 °F 94% 29.87 in 10.0 mi SSW 3.5 mph - N/A   Clear
2:15 PM 64.4 °F 59.0 °F 83% 29.88 in 10.0 mi SSW 5.8 mph - N/A   Clear
2:35 PM 64.4 °F 60.8 °F 88% 29.88 in 10.0 mi SSW 4.6 mph - N/A   Clear
2:55 PM 66.2 °F 60.8 °F 83% 29.87 in 10.0 mi South 4.6 mph - N/A   Clear
3:15 PM 66.2 °F 60.8 °F 83% 29.87 in 10.0 mi Calm Calm - N/A   Clear
3:35 PM 68.0 °F 60.8 °F 78% 29.85 in 10.0 mi SSE 9.2 mph - N/A   Clear
3:55 PM 69.8 °F 60.8 °F 73% 29.86 in 10.0 mi South 8.1 mph - N/A   Clear
4:15 PM 69.8 °F 60.8 °F 73% 29.86 in 10.0 mi South 6.9 mph - N/A   Scattered Clouds
4:35 PM 69.8 °F 60.8 °F 73% 29.86 in 10.0 mi South 3.5 mph - N/A   Scattered Clouds
4:54 PM 68.0 °F 60.8 °F 78% 29.85 in 10.0 mi SSE 6.9 mph - N/A   Scattered Clouds
5:15 PM 69.8 °F 60.8 °F 73% 29.85 in 10.0 mi SSW 4.6 mph - N/A   Scattered Clouds
5:35 PM 69.8 °F 60.8 °F 73% 29.84 in 10.0 mi SSW 9.2 mph - N/A   Scattered Clouds
5:55 PM 69.8 °F 60.8 °F 73% 29.85 in 10.0 mi SSW 9.2 mph 16.1 mph N/A   Clear
6:15 PM 69.8 °F 60.8 °F 73% 29.85 in 10.0 mi SSW 8.1 mph - N/A   Clear
6:35 PM 69.8 °F 60.8 °F 73% 29.84 in 10.0 mi South 5.8 mph - N/A   Clear
6:55 PM 69.8 °F 59.0 °F 68% 29.85 in 10.0 mi SSW 5.8 mph - N/A   Clear
7:15 PM 69.8 °F 60.8 °F 73% 29.85 in 10.0 mi South 5.8 mph - N/A   Clear
7:35 PM 68.0 °F 60.8 °F 78% 29.85 in 10.0 mi SW 4.6 mph - N/A   Clear
7:55 PM 68.0 °F 60.8 °F 78% 29.85 in 10.0 mi SW 5.8 mph - N/A   Clear
8:15 PM 68.0 °F 60.8 °F 78% 29.86 in 10.0 mi SW 5.8 mph - N/A   Clear
8:35 PM 66.2 °F 60.8 °F 83% 29.85 in 10.0 mi Calm Calm - N/A   Clear
8:55 PM 68.0 °F 60.8 °F 78% 29.86 in 10.0 mi Calm Calm - N/A   Clear
9:15 PM 66.2 °F 60.8 °F 83% 29.87 in 10.0 mi Calm Calm - N/A   Clear
9:34 PM 64.4 °F 60.8 °F 88% 29.87 in 10.0 mi Calm Calm - N/A   Clear
9:55 PM 64.4 °F 60.8 °F 88% 29.88 in 10.0 mi Calm Calm - N/A   Clear
10:15 PM 64.4 °F 60.8 °F 88% 29.89 in 10.0 mi Calm Calm - N/A   Clear
10:35 PM 62.6 °F 60.8 °F 94% 29.89 in 7.0 mi SE 3.5 mph - N/A   Clear
10:55 PM 62.6 °F 59.0 °F 88% 29.89 in 7.0 mi Calm Calm - N/A   Clear
11:15 PM 60.8 °F 57.2 °F 88% 29.89 in 7.0 mi SE 4.6 mph - N/A   Clear
11:34 PM 60.8 °F 57.2 °F 88% 29.89 in 10.0 mi Calm Calm - N/A   Clear
11:55 PM 60.8 °F 57.2 °F 88% 29.89 in 10.0 mi SSE 3.5 mph - N/A   Clear